GW4576 Weather Reports


Display with metric or nautical units.
time (UTC)temp
F
wind
direction
speed
MPH
gust
MPH
rain 1hr
in
rain 24hr
in
rain mn
in
humidity
%
barometer
mb
20260509201414 91 83 4.0 7.0 0.00 0.02 0.02 38 1010.9
20260509200911 91 3 2.0 5.0 0.00 0.02 0.02 40 1010.7
20260509200411 90 33 9.0 10.0 0.00 0.02 0.02 39 1011.0
20260509195908 91 58 6.0 9.0 0.00 0.02 0.02 40 1011.0
20260509195403 90 358 4.0 12.0 0.00 0.02 0.02 43 1011.1
20260509194903 90 33 5.0 7.0 0.00 0.02 0.02 41 1011.0
20260509194359 89 60 2.0 8.0 0.00 0.02 0.02 43 1011.1
20260509193856 90 36 4.0 9.0 0.00 0.02 0.02 42 1011.2
20260509193356 91 329 3.0 5.0 0.00 0.02 0.02 43 1011.1
20260509192852 91 310 2.0 5.0 0.00 0.02 0.02 42
20260509192348 90 210 1.0 6.0 0.00 0.02 0.02 42 1011.3
20260509191844 90 89 3.0 5.0 0.00 0.02 0.02 45 1011.3
20260509191340 89 344 3.0 7.0 0.00 0.02 0.02 45 1011.4
20260509190836 91 2 2.0 4.0 0.00 0.02 0.02 44 1011.3
20260509190333 91 18 3.0 4.0 0.00 0.02 0.02 47 1011.3
20260509185830 89 29 2.0 4.0 0.00 0.02 0.02 46 1011.6
20260509185326 89 69 6.0 6.0 0.00 0.02 0.02 46 1011.6
20260509184824 89 320 4.0 6.0 0.00 0.02 0.02 46 1011.7
20260509184321 88 330 2.0 9.0 0.00 0.02 0.02 45 1011.5
20260509183818 90 309 3.0 5.0 0.00 0.02 0.02 43 1011.7
20260509183313 89 259 2.0 3.0 0.00 0.02 0.02 45 1011.8
20260509182809 89 84 4.0 4.0 0.00 0.02 0.02 44 1011.8
20260509182307 88 352 2.0 4.0 0.00 0.02 0.02 47 1011.9
20260509181803 88 2 3.0 6.0 0.00 0.02 0.02 44 1012.0
20260509181301 88 50 3.0 4.0 0.00 0.02 0.02 47 1012.0
20260509180758 87 277 3.0 5.0 0.00 0.02 0.02 44 1012.1
20260509180254 87 35 6.0 7.0 0.00 0.02 0.02 46 1012.3
20260509175750 88 359 4.0 8.0 0.00 0.02 0.02 46 1012.4
20260509175247 87 28 1.0 4.0 0.00 0.02 0.02 45 1012.3
20260509174743 87 293 1.0 5.0 0.00 0.02 0.02 45 1012.3
20260509174238 87 359 3.0 5.0 0.00 0.02 0.02 47 1012.4
20260509173735 87 310 3.0 8.0 0.00 0.02 0.02 47 1012.4
20260509173230 87 35 2.0 7.0 0.00 0.02 0.02 49 1012.6
20260509172727 86 24 6.0 8.0 0.00 0.02 0.02 48 1012.3
20260509172223 88 267 2.0 5.0 0.00 0.02 0.02 44 1012.5
20260509171718 87 340 2.0 3.0 0.00 0.02 0.02 46 1012.7
20260509171215 87 358 2.0 5.0 0.00 0.02 0.02 47 1012.6
20260509170712 86 14 4.0 6.0 0.00 0.02 0.02 48 1012.6
20260509170208 87 282 5.0 6.0 0.00 0.02 0.02 47 1012.5
20260509165707 87 300 2.0 3.0 0.00 0.02 0.02 48 1012.8
20260509165202 87 344 2.0 4.0 0.00 0.02 0.02 48 1012.7
20260509164658 86 253 0.0 3.0 0.00 0.02 0.02 50 1012.7
20260509164154 87 266 5.0 5.0 0.00 0.02 0.02 50 1012.9
20260509163652 87 335 2.0 4.0 0.00 0.02 0.02 53 1012.9
20260509163148 87 214 1.0 2.0 0.00 0.02 0.02 51 1012.9
20260509162645 85 212 2.0 4.0 0.00 0.02 0.02 50 1013.0
20260509162141 85 180 0.0 3.0 0.00 0.02 0.02 52 1012.8
20260509161637 85 281 2.0 4.0 0.00 0.02 0.02 50 1012.9
20260509161132 84 96 3.0 5.0 0.00 0.02 0.02 52 1012.8
20260509160628 84 359 4.0 5.0 0.00 0.02 0.02 54 1012.9
20260509160124 84 60 2.0 7.0 0.00 0.02 0.02 52 1012.9
20260509155620 84 130 0.0 3.0 0.00 0.02 0.02 53 1013.1
20260509155116 84 20 3.0 4.0 0.00 0.02 0.02 58 1012.9
20260509154612 84 50 2.0 3.0 0.00 0.02 0.02 56 1012.9
20260509154110 82 357 2.0 5.0 0.00 0.02 0.02 60 1012.9
20260509153607 83 300 3.0 4.0 0.00 0.02 0.02 58 1012.8
20260509153104 82 73 2.0 3.0 0.00 0.02 0.02 59 1013.0
20260509152559 80 300 3.0 5.0 0.00 0.02 0.02 61 1012.9
20260509152057 81 295 4.0 5.0 0.00 0.02 0.02 62 1012.8
20260509151553 80 330 3.0 6.0 0.00 0.02 0.02 64 1012.9
20260509151051 80 353 3.0 5.0 0.00 0.02 0.02 63 1013.1
20260509150548 80 335 5.0 5.0 0.00 0.02 0.02 67 1013.0
20260509150047 80 293 5.0 5.0 0.00 0.02 0.02 67 1013.1
20260509145542 79 297 3.0 4.0 0.00 0.02 0.02 69 1013.2
20260509145037 78 290 4.0 7.0 0.00 0.02 0.02 70 1013.2
20260509144534 78 277 3.0 5.0 0.00 0.02 0.02 71 1013.1
20260509144032 78 317 2.0 4.0 0.00 0.02 0.02 70 1013.0
20260509143528 78 305 2.0 5.0 0.00 0.02 0.02 70 1013.1
20260509143027 78 0 3.0 5.0 0.00 0.02 0.02 72 1013.2
20260509142521 76 71 3.0 5.0 0.00 0.02 0.02 73 1012.9
20260509142017 76 332 4.0 6.0 0.00 0.02 0.02 72 1012.8
20260509141514 76 341 5.0 6.0 0.00 0.02 0.02 72 1012.9
20260509141011 76 294 3.0 5.0 0.00 0.02 0.02 75 1013.0
20260509140507 75 339 3.0 4.0 0.00 0.02 0.02 77 1012.8
20260509140006 73 338 5.0 8.0 0.00 0.02 0.02 77 1012.9
20260509135502 73 335 5.0 6.0 0.00 0.02 0.02 80 1012.7
20260509135000 72 331 3.0 4.0 0.00 0.02 0.02 81 1012.8
20260509134457 72 350 5.0 5.0 0.00 0.02 0.02 81 1012.7
20260509133955 72 302 4.0 10.0 0.00 0.02 0.02 81 1012.7
20260509133451 72 312 4.0 6.0 0.00 0.02 0.02 82 1012.5
20260509132949 72 328 4.0 7.0 0.00 0.02 0.02 82 1012.3
20260509132447 72 4 6.0 7.0 0.00 0.02 0.02 82 1012.2
20260509131944 72 357 3.0 6.0 0.00 0.02 0.02 82 1012.2
20260509131441 72 290 5.0 11.0 0.00 0.02 0.02 83 1012.0
20260509130937 72 348 7.0 8.0 0.00 0.02 0.02 83 1012.0
20260509130433 71 330 4.0 7.0 0.00 0.02 0.02 84 1012.1
20260509125930 71 342 5.0 6.0 0.00 0.02 0.02 85 1012.0
20260509125427 70 341 2.0 6.0 0.00 0.02 0.02 85 1011.8
20260509124923 70 345 5.0 6.0 0.00 0.02 0.02 86 1011.8
20260509124420 70 336 5.0 8.0 0.00 0.02 0.02 85 1011.9
20260509123917 71 347 3.0 6.0 0.00 0.02 0.02 85 1011.7
20260509123415 71 15 3.0 5.0 0.00 0.02 0.02 85 1011.7
20260509122910 70 350 3.0 5.0 0.00 0.02 0.02 85 1011.7
20260509122408 70 3 3.0 6.0 0.00 0.02 0.02 85 1011.7
20260509121904 70 343 3.0 5.0 0.00 0.02 0.02 85 1011.9
20260509121401 69 357 3.0 5.0 0.00 0.02 0.02 87 1011.7
20260509120859 69 359 4.0 6.0 0.00 0.02 0.02 88 1011.5
20260509120356 68 17 6.0 6.0 0.00 0.02 0.02 89 1011.7
20260509115854 68 14 5.0 8.0 0.00 0.02 0.02 89 1011.7
20260509115351 68 19 3.0 5.0 0.00 0.02 0.02 89 1011.7
20260509114849 68 7 3.0 5.0 0.00 0.02 0.02 90 1011.7
20260509114348 68 20 5.0 6.0 0.00 0.02 0.02 90 1011.8
20260509113847 68 8 3.0 4.0 0.00 0.02 0.02 91 1012.0
20260509113344 68 33 1.0 5.0 0.00 0.02 0.02 91 1011.7
20260509112840 68 46 1.0 3.0 0.00 0.02 0.02 91 1011.9
20260509112337 69 349 2.0 4.0 0.00 0.02 0.02 91 1011.9
20260509111834 69 331 3.0 5.0 0.00 0.02 0.02 91 1011.9
20260509111331 69 338 2.0 5.0 0.00 0.02 0.02 92 1011.9
20260509110829 69 316 4.0 5.0 0.00 0.02 0.02 92 1011.8
20260509110325 69 254 0.0 2.0 0.00 0.02 0.02 91 1011.9
20260509105823 69 287 3.0 3.0 0.00 0.02 0.02 91 1011.8
20260509105321 69 346 3.0 4.0 0.00 0.02 0.02 91 1011.4
20260509104817 70 258 2.0 6.0 0.00 0.02 0.02 91 1011.4
20260509104314 69 312 3.0 5.0 0.00 0.02 0.02 92 1011.1
20260509103812 69 302 5.0 8.0 0.00 0.02 0.02 92 1011.5
20260509103309 69 221 2.0 4.0 0.00 0.02 0.02 93 1011.0
20260509102808 69 311 4.0 5.0 0.00 0.02 0.02 93 1011.1
20260509102306 69 63 4.0 7.0 0.00 0.02 0.02 94 1010.9
20260509101800 69 315 3.0 7.0 0.00 0.02 0.02 95 1010.7
20260509101256 69 146 4.0 7.0 0.00 0.02 0.02 95 1010.2
20260509100754 69 187 0.0 3.0 0.00 0.02 0.02 95 1010.3
20260509100252 69 356 3.0 3.0 0.00 0.02 0.02 96 1009.9
20260509095748 69 264 0.0 3.0 0.00 0.02 0.02 96 1009.5
20260509095245 69 35 3.0 5.0 0.00 0.02 0.02 96 1009.2
20260509094742 69 189 1.0 4.0 0.00 0.02 0.02 96 1009.1
20260509094239 69 276 0.0 3.0 0.00 0.02 0.02 96 1009.4
20260509093737 69 269 3.0 5.0 0.00 0.02 0.02 96 1009.0
20260509093234 69 170 5.0 5.0 0.00 0.02 0.02 96 1008.9
20260509092732 69 306 0.0 2.0 0.00 0.02 0.02 96 1009.5
20260509092230 69 263 3.0 4.0 0.00 0.02 0.02 96 1009.2
20260509091728 69 213 6.0 9.0 0.00 0.02 0.02 96 1009.1
20260509091223 69 139 4.0 7.0 0.00 0.02 0.02 96 1009.0
20260509090722 68 163 2.0 2.0 0.00 0.02 0.02 96 1009.8
20260509090218 69 246 2.0 2.0 0.00 0.02 0.02 96 1010.1
20260509085716 69 167 4.0 7.0 0.00 0.02 0.02 96 1010.4
20260509085213 68 169 4.0 5.0 0.00 0.02 0.02 96 1010.5
20260509084710 68 289 2.0 3.0 0.00 0.02 0.02 96 1010.8
20260509084206 68 202 4.0 4.0 0.00 0.02 0.02 96 1010.8
20260509083704 68 179 3.0 4.0 0.00 0.02 0.02 96 1011.0
20260509083201 68 21 1.0 2.0 0.00 0.02 0.02 95 1011.2
20260509082658 68 307 2.0 2.0 0.00 0.02 0.02 95 1011.1
20260509082154 68 296 1.0 1.0 0.00 0.02 0.02 95 1011.0
20260509081651 68 134 2.0 3.0 0.00 0.02 0.02 95 1011.0
20260509081148 68 137 2.0 3.0 0.00 0.02 0.02 95 1011.2
20260509080646 69 197 2.0 4.0 0.00 0.02 0.02 95 1011.4
20260509080144 69 140 3.0 5.0 0.00 0.02 0.02 95 1011.7
20260509075642 69 134 4.0 5.0 0.00 0.02 0.02 94 1012.2
20260509075140 69 192 1.0 3.0 0.00 0.02 0.02 94 1012.5
20260509074636 69 154 2.0 3.0 0.00 0.02 0.02 94 1012.7
20260509074133 69 195 0.0 3.0 0.02 0.02 0.02 94 1013.0
20260509073630 69 14 1.0 3.0 0.00 0.02 0.02 94 1013.2
20260509073126 69 144 0.0 2.0 0.02 0.02 0.02 94 1013.3
20260509072623 69 11 0.0 2.0 0.02 0.02 0.02 94 1013.9
20260509072120 69 50 2.0 3.0 0.05 0.01 0.01 94 1013.8
20260509071616 69 293 2.0 3.0 0.02 0.00 0.00 94 1013.8
20260509071113 69 318 3.0 6.0 0.00 0.00 0.00 94 1014.0
20260509070611 69 340 6.0 10.0 0.00 0.00 0.00 95 1014.4
20260509070107 69 291 9.0 12.0 0.00 0.00 0.00 95 1014.2
20260509065602 69 305 3.0 7.0 0.00 0.00 0.00 95 1014.1
20260509065058 68 345 6.0 6.0 0.00 0.00 0.00 96 1013.9
20260509064556 68 2 4.0 8.0 0.00 0.00 0.00 96 1013.8
20260509064054 68 351 3.0 5.0 0.00 0.00 0.00 96 1013.4
20260509063550 68 340 2.0 3.0 0.00 0.00 0.00 96 1013.1
20260509063047 68 309 2.0 4.0 0.00 0.00 0.00 96 1013.3
20260509062544 67 317 2.0 5.0 0.00 0.00 0.00 95 1013.2
20260509062042 67 356 1.0 2.0 0.00 0.00 0.00 95 1013.0
20260509061538 67 356 4.0 5.0 0.00 0.00 0.00 95 1013.3
20260509061036 66 344 1.0 2.0 0.00 0.00 0.00 95 1012.6
20260509060533 65 19 1.0 2.0 0.00 0.00 0.00 94 1012.3
20260509060029 66 8 0.0 2.0 0.00 0.00 0.00 94 1012.1
20260509055524 66 22 0.0 2.0 0.00 0.00 0.00 94 1012.0
20260509055021 66 40 0.0 2.0 0.00 0.00 0.00 94 1011.9
20260509054517 67 147 0.0 2.0 0.00 0.00 0.00 94 1012.2
20260509054016 67 216 0.0 1.0 0.00 0.00 0.00 94 1012.3
20260509053514 68 217 0.0 2.0 0.00 0.00 0.00 93 1012.5
20260509053010 68 341 0.0 2.0 0.00 0.00 0.00 93 1012.5
20260509052508 68 59 0.0 1.0 0.00 0.00 0.00 93 1012.4
20260509052006 69 66 1.0 3.0 0.00 0.00 0.00 93 1012.5
20260509051504 68 51 3.0 5.0 0.00 0.00 0.00 93 1012.5
20260509051000 68 43 3.0 3.0 0.00 0.00 0.00 93 1012.4
20260509050457 68 0 2.0 3.0 0.00 0.00 0.00 92 1012.4
20260509045953 68 1 1.0 2.0 0.00 0.00 0.00 92 1012.3
20260509045451 68 23 0.0 2.0 0.00 0.00 0.00 91 1011.9
20260509044948 68 184 0.0 0.0 0.00 0.00 0.00 91 1011.9
20260509044445 69 11 0.0 1.0 0.00 0.00 0.00 91 1011.9
20260509043942 69 348 2.0 4.0 0.00 0.00 0.00 91 1012.0
20260509043438 69 33 2.0 4.0 0.00 0.00 0.00 91 1011.7
20260509042933 70 160 2.0 3.0 0.00 0.00 0.00 91 1011.6
20260509042431 70 144 1.0 2.0 0.00 0.00 0.00 90 1011.5
20260509041927 70 183 1.0 2.0 0.00 0.00 0.00 90 1011.5
20260509041424 70 316 1.0 2.0 0.00 0.00 0.00 90 1011.7
20260509040922 70 186 1.0 5.0 0.00 0.00 0.00 90 1011.5
20260509040420 70 125 2.0 3.0 0.00 0.00 0.00 90 1011.7
20260509035916 70 169 2.0 3.0 0.00 0.00 0.00 90 1011.5
20260509035414 71 163 2.0 3.0 0.00 0.00 0.00 89 1011.7
20260509034910 71 205 0.0 4.0 0.00 0.00 0.00 89 1011.5
20260509034408 71 167 2.0 3.0 0.00 0.00 0.00 89 1011.4
20260509033905 71 182 2.0 4.0 0.00 0.00 0.00 89 1011.5
20260509033402 71 159 2.0 3.0 0.00 0.00 0.00 89 1011.6
20260509032858 71 122 2.0 4.0 0.00 0.00 0.00 88 1011.7
20260509032355 71 149 3.0 3.0 0.00 0.00 0.00 88 1011.8
20260509031853 71 114 0.0 2.0 0.00 0.00 0.00 88 1011.7
20260509031350 71 178 2.0 3.0 0.00 0.00 0.00 87 1011.5
20260509030848 72 170 1.0 4.0 0.00 0.00 0.00 87 1011.5
20260509030346 72 152 2.0 4.0 0.00 0.00 0.00 87 1011.4
20260509025843 72 163 1.0 3.0 0.00 0.00 0.00 87 1011.3
20260509025338 72 147 2.0 3.0 0.00 0.00 0.00 86 1011.4
20260509024833 72 144 2.0 4.0 0.00 0.00 0.00 86 1011.1
20260509024330 73 148 2.0 3.0 0.00 0.00 0.00 86 1011.0
20260509023827 73 293 0.0 3.0 0.00 0.00 0.00 86 1011.0
20260509023325 73 141 3.0 4.0 0.00 0.00 0.00 85 1011.0
20260509022821 73 154 1.0 3.0 0.00 0.00 0.00 85 1010.9
20260509022318 73 170 3.0 4.0 0.00 0.00 0.00 85 1011.0
20260509021815 73 214 0.0 2.0 0.00 0.00 0.00 85 1010.8
20260509021312 73 128 0.0 2.0 0.00 0.00 0.00 85 1010.9
20260509020810 73 181 2.0 3.0 0.00 0.00 0.00 85 1010.9
20260509020308 73 182 0.0 2.0 0.00 0.00 0.00 85 1011.0
20260509015805 73 153 0.0 2.0 0.00 0.00 0.00 85 1010.8
20260509015306 73 149 2.0 3.0 0.00 0.00 0.00 85 1010.8
20260509014759 73 146 2.0 2.0 0.00 0.00 0.00 85 1010.9
20260509014256 73 309 0.0 1.0 0.00 0.00 0.00 84 1010.7
20260509013753 73 341 0.0 1.0 0.00 0.00 0.00 84 1010.5
20260509013248 74 74 1.0 2.0 0.00 0.00 0.00 84 1010.8
20260509012745 74 89 0.0 3.0 0.00 0.00 0.00 84 1010.7
20260509012242 74 332 0.0 2.0 0.00 0.00 0.00 83 1010.4
20260509011739 74 140 0.0 3.0 0.00 0.00 0.00 83 1010.3
20260509011237 74 132 2.0 3.0 0.00 0.00 0.00 83 1010.2
20260509010735 74 155 0.0 3.0 0.00 0.00 0.00 83 1010.2
20260509010231 74 86 0.0 3.0 0.00 0.00 0.00 82 1010.0
20260509005728 74 107 0.0 2.0 0.00 0.00 0.00 82 1010.1
20260509005225 74 15 1.0 2.0 0.00 0.00 0.00 82 1010.0
20260509004720 75 57 0.0 3.0 0.00 0.00 0.00 81 1010.1
20260509004218 75 140 3.0 4.0 0.00 0.00 0.00 81 1009.9
20260509003715 75 66 0.0 3.0 0.00 0.00 0.00 81 1010.1
20260509003213 75 113 1.0 3.0 0.00 0.00 0.00 80 1009.9
20260509002710 75 166 4.0 4.0 0.00 0.00 0.00 80 1010.0
20260509002208 75 82 3.0 3.0 0.00 0.00 0.00 80 1010.0
20260509001705 75 114 2.0 4.0 0.00 0.00 0.00 79 1010.0
20260509001200 76 13 1.0 6.0 0.00 0.00 0.00 79 1010.0
20260509000659 76 57 3.0 3.0 0.00 0.00 0.00 78 1009.9
20260509000156 76 86 1.0 4.0 0.00 0.00 0.00 78 1010.0
20260508235653 77 54 3.0 3.0 0.00 0.00 0.00 77 1010.0
20260508235149 77 104 0.0 4.0 0.00 0.00 0.00 77 1010.2
20260508234646 77 142 2.0 5.0 0.00 0.00 0.00 77 1010.0
20260508234142 77 164 2.0 7.0 0.00 0.00 0.00 77 1009.9
20260508233637 76 157 3.0 6.0 0.00 0.00 0.00 77 1010.1
20260508233134 77 156 6.0 7.0 0.00 0.00 0.00 76 1009.9
20260508232631 77 136 2.0 5.0 0.00 0.00 0.00 75 1010.0
20260508232128 78 160 1.0 7.0 0.00 0.00 0.00 75 1009.8
20260508231625 77 157 5.0 6.0 0.00 0.00 0.00 75 1010.0
20260508231122 78 117 3.0 7.0 0.00 0.00 0.00 74 1010.0
20260508230618 78 78 1.0 4.0 0.00 0.00 0.00 75 1010.0
20260508230115 77 146 7.0 10.0 0.00 0.00 0.00 74 1009.8
20260508225613 77 107 2.0 9.0 0.00 0.00 0.00 75 1010.2
20260508225109 78 100 5.0 6.0 0.00 0.00 0.00 74 1010.1
20260508224607 78 87 3.0 7.0 0.00 0.00 0.00 73 1010.0
20260508224104 78 86 4.0 4.0 0.00 0.00 0.00 74 1010.0
20260508223602 77 150 2.0 6.0 0.00 0.00 0.00 74 1010.1
20260508223059 77 105 2.0 6.0 0.00 0.00 0.00 75 1010.1
20260508222556 77 43 2.0 5.0 0.00 0.00 0.00 74 1010.4
20260508222053 77 162 8.0 9.0 0.00 0.00 0.00 74 1010.4
20260508221549 77 81 7.0 8.0 0.00 0.00 0.00 74 1010.3
20260508221045 77 132 5.0 7.0 0.00 0.00 0.00 73 1010.4
20260508220542 76 174 4.0 6.0 0.00 0.00 0.00 74 1010.5
20260508220038 76 88 2.0 9.0 0.00 0.00 0.00 74 1010.6
20260508215535 77 106 2.0 6.0 0.00 0.00 0.00 74 1010.6
20260508215032 77 134 4.0 5.0 0.00 0.00 0.00 73 1010.7
20260508214530 77 182 6.0 7.0 0.00 0.00 0.00 74 1010.7
20260508214026 76 123 6.0 9.0 0.00 0.00 0.00 75 1010.8
20260508213524 76 131 4.0 10.0 0.00 0.00 0.00 76 1010.7
20260508213019 76 254 3.0 10.0 0.00 0.00 0.00 75 1010.8
20260508212515 75 166 6.0 9.0 0.00 0.00 0.00 75 1011.0
20260508212012 76 213 6.0 9.0 0.00 0.00 0.00 74 1010.9
20260508211507 76 154 5.0 6.0 0.00 0.00 0.00 75 1011.1
20260508211004 75 136 4.0 8.0 0.00 0.00 0.00 75 1011.3
20260508210501 74 124 3.0 11.0 0.00 0.00 0.00 77 1011.2
20260508205957 73 131 5.0 7.0 0.00 0.00 0.00 76 1011.5
20260508205455 74 140 4.0 6.0 0.00 0.00 0.00 76 1011.3
20260508204951 73 164 4.0 5.0 0.00 0.00 0.00 77 1011.5
20260508204448 74 133 7.0 7.0 0.00 0.00 0.00 75 1011.5
20260508203943 74 148 3.0 5.0 0.00 0.00 0.00 75 1011.8
20260508203440 73 103 3.0 7.0 0.00 0.00 0.00 76 1011.6
20260508202935 73 159 4.0 7.0 0.00 0.00 0.00 75 1011.6
20260508202433 73 139 5.0 11.0 0.00 0.00 0.00 74 1011.6
20260508201930 71 120 6.0 12.0 0.00 0.00 0.00 76 1011.5